Time,TemperatureF,DewpointF,PressureIn,WindDirection,WindDirectionDegrees,WindSpeedMPH,WindSpeedGustMPH,Humidity,HourlyPrecipIn,Conditions,Clouds,dailyrainin,SolarRadiationWatts/m^2,SoftwareType,DateUTC
2013-01-28 00:03:00,42.6,36.0,30.22,North,5,0.0,3.0,78,0.00,,,0.00,0,weatherlink.com 1.10,2013-01-28 08:03:00,
2013-01-28 00:17:00,42.1,36.0,30.22,NNW,327,1.0,2.0,78,0.00,,,0.00,0,weatherlink.com 1.10,2013-01-28 08:17:00,
2013-01-28 00:33:00,42.2,36.0,30.23,North,355,0.0,4.0,79,0.00,,,0.00,0,weatherlink.com 1.10,2013-01-28 08:33:00,
2013-01-28 00:48:00,42.2,36.0,30.23,NW,315,2.0,4.0,79,0.00,,,0.00,0,weatherlink.com 1.10,2013-01-28 08:48:00,
2013-01-28 01:03:00,42.6,36.0,30.23,NNE,14,3.0,4.0,78,0.00,,,0.00,0,weatherlink.com 1.10,2013-01-28 09:03:00,
2013-01-28 01:18:00,43.4,37.0,30.22,NNW,342,0.0,5.0,79,0.00,,,0.00,0,weatherlink.com 1.10,2013-01-28 09:18:00,
2013-01-28 01:33:00,44.5,38.0,30.22,NW,321,1.0,6.0,78,0.00,,,0.00,0,weatherlink.com 1.10,2013-01-28 09:33:00,
2013-01-28 01:48:00,44.7,38.0,30.22,NNW,348,0.0,6.0,77,0.00,,,0.00,0,weatherlink.com 1.10,2013-01-28 09:48:00,
2013-01-28 02:03:00,44.2,37.0,30.22,NNE,13,0.0,2.0,77,0.00,,,0.00,0,weatherlink.com 1.10,2013-01-28 10:03:00,
2013-01-28 02:18:00,43.6,37.0,30.21,NNE,17,3.0,4.0,78,0.00,,,0.00,0,weatherlink.com 1.10,2013-01-28 10:18:00,
2013-01-28 02:33:00,43.5,37.0,30.22,NNE,32,2.0,5.0,79,0.00,,,0.00,0,weatherlink.com 1.10,2013-01-28 10:33:00,
2013-01-28 02:48:00,44.0,38.0,30.22,NNE,15,2.0,4.0,78,0.00,,,0.00,0,weatherlink.com 1.10,2013-01-28 10:48:00,
2013-01-28 03:03:00,44.9,38.0,30.21,NNW,346,2.0,4.0,78,0.00,,,0.00,0,weatherlink.com 1.10,2013-01-28 11:03:00,
2013-01-28 03:18:00,45.2,39.0,30.21,NNW,344,0.0,2.0,78,0.00,,,0.00,0,weatherlink.com 1.10,2013-01-28 11:18:00,
2013-01-28 03:33:00,44.5,38.0,30.21,North,5,1.0,3.0,78,0.00,,,0.00,0,weatherlink.com 1.10,2013-01-28 11:33:00,
2013-01-28 03:48:00,43.4,37.0,30.20,NNE,15,1.0,3.0,79,0.00,,,0.00,0,weatherlink.com 1.10,2013-01-28 11:48:00,
2013-01-28 04:03:00,43.4,38.0,30.20,North,5,1.0,4.0,80,0.00,,,0.00,0,weatherlink.com 1.10,2013-01-28 12:03:00,
2013-01-28 04:18:00,44.3,39.0,30.21,North,5,3.0,6.0,80,0.00,,,0.00,0,weatherlink.com 1.10,2013-01-28 12:18:00,
2013-01-28 04:33:00,44.7,39.0,30.21,NNW,327,1.0,6.0,80,0.00,,,0.00,0,weatherlink.com 1.10,2013-01-28 12:33:00,
2013-01-28 04:48:00,43.0,37.0,30.21,NNE,27,4.0,6.0,79,0.00,,,0.00,0,weatherlink.com 1.10,2013-01-28 12:48:00,
2013-01-28 05:03:00,41.7,36.0,30.21,NNE,30,1.0,6.0,80,0.00,,,0.00,0,weatherlink.com 1.10,2013-01-28 13:03:00,
2013-01-28 05:18:00,41.6,36.0,30.21,NNE,24,0.0,5.0,81,0.00,,,0.00,0,weatherlink.com 1.10,2013-01-28 13:18:00,
2013-01-28 05:33:00,41.7,36.0,30.21,West,273,3.0,4.0,81,0.00,,,0.00,0,weatherlink.com 1.10,2013-01-28 13:33:00,
2013-01-28 05:48:00,42.0,37.0,30.21,North,5,2.0,4.0,81,0.00,,,0.00,0,weatherlink.com 1.10,2013-01-28 13:48:00,
2013-01-28 06:03:00,43.1,38.0,30.21,NNW,335,0.0,6.0,82,0.00,,,0.00,0,weatherlink.com 1.10,2013-01-28 14:03:00,
2013-01-28 06:18:00,43.9,38.0,30.22,NW,307,2.0,5.0,81,0.00,,,0.00,0,weatherlink.com 1.10,2013-01-28 14:18:00,
2013-01-28 06:33:00,43.6,38.0,30.22,NNW,345,1.0,4.0,80,0.00,,,0.00,0,weatherlink.com 1.10,2013-01-28 14:33:00,
2013-01-28 06:48:00,43.2,37.0,30.22,North,360,2.0,3.0,80,0.00,,,0.00,0,weatherlink.com 1.10,2013-01-28 14:48:00,
2013-01-28 07:03:00,43.1,37.0,30.23,North,5,1.0,4.0,80,0.00,,,0.00,0,weatherlink.com 1.10,2013-01-28 15:03:00,
2013-01-28 07:18:00,42.7,37.0,30.23,North,9,3.0,5.0,80,0.00,,,0.00,5,weatherlink.com 1.10,2013-01-28 15:18:00,
2013-01-28 07:33:00,42.6,37.0,30.24,North,5,1.0,3.0,80,0.00,,,0.00,16,weatherlink.com 1.10,2013-01-28 15:33:00,
2013-01-28 07:48:00,42.9,37.0,30.24,NNE,15,1.0,4.0,80,0.00,,,0.00,37,weatherlink.com 1.10,2013-01-28 15:48:00,
2013-01-28 08:03:00,43.8,38.0,30.24,NNW,340,1.0,3.0,80,0.00,,,0.00,90,weatherlink.com 1.10,2013-01-28 16:03:00,
2013-01-28 08:18:00,44.5,39.0,30.24,NNW,328,0.0,3.0,80,0.00,,,0.00,86,weatherlink.com 1.10,2013-01-28 16:18:00,
2013-01-28 08:33:00,45.2,39.0,30.25,NW,307,0.0,3.0,79,0.00,,,0.00,109,weatherlink.com 1.10,2013-01-28 16:33:00,
2013-01-28 08:48:00,46.0,40.0,30.25,NW,322,1.0,3.0,78,0.00,,,0.00,130,weatherlink.com 1.10,2013-01-28 16:48:00,
2013-01-28 09:04:00,46.7,40.0,30.25,West,280,3.0,5.0,78,0.00,,,0.00,243,weatherlink.com 1.10,2013-01-28 17:04:00,
2013-01-28 09:19:00,47.8,41.0,30.25,West,278,4.0,8.0,78,0.00,,,0.00,295,weatherlink.com 1.10,2013-01-28 17:19:00,
2013-01-28 09:34:00,48.6,42.0,30.27,WNW,289,8.0,9.0,78,0.00,,,0.00,373,weatherlink.com 1.10,2013-01-28 17:34:00,
2013-01-28 09:49:00,49.7,43.0,30.27,NW,311,4.0,13.0,77,0.00,,,0.00,248,weatherlink.com 1.10,2013-01-28 17:49:00,
2013-01-28 10:04:00,50.3,43.0,30.28,NNW,348,6.0,13.0,76,0.00,,,0.00,330,weatherlink.com 1.10,2013-01-28 18:04:00,
2013-01-28 10:19:00,50.6,43.0,30.28,NNW,327,8.0,14.0,75,0.00,,,0.00,448,weatherlink.com 1.10,2013-01-28 18:19:00,
2013-01-28 10:34:00,51.1,43.0,30.29,West,273,5.0,14.0,74,0.00,,,0.00,475,weatherlink.com 1.10,2013-01-28 18:34:00,
2013-01-28 10:49:00,51.5,43.0,30.29,West,281,10.0,17.0,73,0.00,,,0.00,506,weatherlink.com 1.10,2013-01-28 18:49:00,
2013-01-28 11:04:00,53.0,44.0,30.29,NW,306,7.0,15.0,71,0.00,,,0.00,513,weatherlink.com 1.10,2013-01-28 19:04:00,
2013-01-28 11:19:00,52.9,43.0,30.29,West,264,7.0,16.0,69,0.00,,,0.00,538,weatherlink.com 1.10,2013-01-28 19:19:00,
2013-01-28 11:34:00,52.3,43.0,30.29,West,259,5.0,16.0,70,0.00,,,0.00,552,weatherlink.com 1.10,2013-01-28 19:34:00,
2013-01-28 11:49:00,52.3,44.0,30.29,WNW,291,8.0,21.0,72,0.00,,,0.00,563,weatherlink.com 1.10,2013-01-28 19:49:00,
2013-01-28 12:05:00,51.9,43.0,30.29,West,259,9.0,17.0,73,0.00,,,0.00,570,weatherlink.com 1.10,2013-01-28 20:05:00,
2013-01-28 12:19:00,51.8,44.0,30.29,West,279,8.0,19.0,74,0.00,,,0.00,566,weatherlink.com 1.10,2013-01-28 20:19:00,
2013-01-28 12:34:00,51.6,44.0,30.28,WNW,288,10.0,17.0,75,0.00,,,0.00,573,weatherlink.com 1.10,2013-01-28 20:34:00,
2013-01-28 12:49:00,51.9,44.0,30.28,West,279,8.0,19.0,75,0.00,,,0.00,573,weatherlink.com 1.10,2013-01-28 20:49:00,
2013-01-28 13:04:00,51.9,44.0,30.28,WNW,293,7.0,21.0,75,0.00,,,0.00,598,weatherlink.com 1.10,2013-01-28 21:04:00,
2013-01-28 13:19:00,51.6,44.0,30.28,West,275,9.0,23.0,75,0.00,,,0.00,550,weatherlink.com 1.10,2013-01-28 21:19:00,
2013-01-28 13:34:00,51.8,44.0,30.27,WNW,286,7.0,18.0,75,0.00,,,0.00,508,weatherlink.com 1.10,2013-01-28 21:34:00,
2013-01-28 13:49:00,52.1,44.0,30.27,WSW,246,9.0,22.0,74,0.00,,,0.00,418,weatherlink.com 1.10,2013-01-28 21:49:00,
2013-01-28 14:04:00,52.1,44.0,30.26,West,279,9.0,19.0,74,0.00,,,0.00,369,weatherlink.com 1.10,2013-01-28 22:04:00,
2013-01-28 14:19:00,51.9,44.0,30.27,West,262,10.0,20.0,74,0.00,,,0.00,353,weatherlink.com 1.10,2013-01-28 22:19:00,
2013-01-28 14:34:00,52.1,44.0,30.27,West,275,12.0,17.0,74,0.00,,,0.00,355,weatherlink.com 1.10,2013-01-28 22:34:00,
2013-01-28 14:49:00,52.3,44.0,30.27,West,270,10.0,23.0,74,0.00,,,0.00,350,weatherlink.com 1.10,2013-01-28 22:49:00,
2013-01-28 15:04:00,51.8,44.0,30.27,West,275,10.0,19.0,74,0.00,,,0.00,221,weatherlink.com 1.10,2013-01-28 23:04:00,
2013-01-28 15:19:00,51.8,44.0,30.27,WNW,295,9.0,24.0,74,0.00,,,0.00,308,weatherlink.com 1.10,2013-01-28 23:19:00,
2013-01-28 15:34:00,51.9,44.0,30.28,West,280,11.0,20.0,74,0.00,,,0.00,250,weatherlink.com 1.10,2013-01-28 23:34:00,
2013-01-28 15:50:00,51.9,44.0,30.28,WNW,284,9.0,18.0,74,0.00,,,0.00,192,weatherlink.com 1.10,2013-01-28 23:50:00,
2013-01-28 16:04:00,52.1,44.0,30.28,NW,318,12.0,19.0,73,0.00,,,0.00,158,weatherlink.com 1.10,2013-01-29 00:04:00,
2013-01-28 16:19:00,51.8,43.0,30.29,NW,311,11.0,18.0,73,0.00,,,0.00,125,weatherlink.com 1.10,2013-01-29 00:19:00,
2013-01-28 16:34:00,51.3,43.0,30.29,WNW,293,6.0,19.0,74,0.00,,,0.00,90,weatherlink.com 1.10,2013-01-29 00:34:00,
2013-01-28 16:49:00,51.1,43.0,30.29,WNW,291,8.0,16.0,74,0.00,,,0.00,72,weatherlink.com 1.10,2013-01-29 00:49:00,
2013-01-28 17:04:00,50.8,43.0,30.30,West,275,8.0,17.0,74,0.00,,,0.00,40,weatherlink.com 1.10,2013-01-29 01:04:00,
2013-01-28 17:34:00,49.6,42.0,30.30,WNW,298,4.0,13.0,75,0.00,,,0.00,0,weatherlink.com 1.10,2013-01-29 01:34:00,
2013-01-28 17:50:00,49.1,42.0,30.30,WNW,290,8.0,11.0,75,0.00,,,0.00,0,weatherlink.com 1.10,2013-01-29 01:50:00,
2013-01-28 18:04:00,48.8,41.0,30.30,WNW,294,5.0,12.0,75,0.00,,,0.00,0,weatherlink.com 1.10,2013-01-29 02:04:00,
2013-01-28 18:19:00,48.6,41.0,30.31,NW,323,4.0,9.0,76,0.00,,,0.00,0,weatherlink.com 1.10,2013-01-29 02:19:00,
2013-01-28 18:34:00,48.4,41.0,30.32,NW,318,4.0,9.0,76,0.00,,,0.00,0,weatherlink.com 1.10,2013-01-29 02:34:00,
2013-01-28 18:49:00,48.0,41.0,30.32,NW,314,5.0,7.0,77,0.00,,,0.00,0,weatherlink.com 1.10,2013-01-29 02:49:00,
2013-01-28 19:05:00,47.8,41.0,30.33,NNW,331,3.0,9.0,77,0.00,,,0.00,0,weatherlink.com 1.10,2013-01-29 03:05:00,
2013-01-28 19:19:00,47.9,41.0,30.33,WNW,298,4.0,8.0,77,0.00,,,0.00,0,weatherlink.com 1.10,2013-01-29 03:19:00,
2013-01-28 19:34:00,47.8,41.0,30.33,WNW,288,5.0,9.0,77,0.00,,,0.00,0,weatherlink.com 1.10,2013-01-29 03:34:00,
2013-01-28 19:49:00,47.6,41.0,30.33,WNW,302,3.0,9.0,77,0.00,,,0.00,0,weatherlink.com 1.10,2013-01-29 03:49:00,
2013-01-28 20:04:00,47.5,41.0,30.32,NNW,337,6.0,7.0,77,0.00,,,0.00,0,weatherlink.com 1.10,2013-01-29 04:04:00,
2013-01-28 20:19:00,47.4,41.0,30.33,North,355,0.0,5.0,77,0.00,,,0.00,0,weatherlink.com 1.10,2013-01-29 04:19:00,
2013-01-28 20:35:00,47.3,40.0,30.34,NW,308,0.0,7.0,76,0.00,,,0.00,0,weatherlink.com 1.10,2013-01-29 04:35:00,
2013-01-28 20:50:00,47.1,40.0,30.34,NNW,329,1.0,3.0,76,0.00,,,0.00,0,weatherlink.com 1.10,2013-01-29 04:50:00,
2013-01-28 21:05:00,47.0,40.0,30.34,NW,326,2.0,5.0,76,0.00,,,0.00,0,weatherlink.com 1.10,2013-01-29 05:05:00,
2013-01-28 21:20:00,47.0,40.0,30.34,WNW,290,0.0,6.0,76,0.00,,,0.00,0,weatherlink.com 1.10,2013-01-29 05:20:00,
2013-01-28 21:35:00,46.8,40.0,30.34,NNW,340,0.0,5.0,76,0.00,,,0.00,0,weatherlink.com 1.10,2013-01-29 05:35:00,
2013-01-28 21:50:00,47.1,40.0,30.34,WNW,297,3.0,7.0,76,0.00,,,0.00,0,weatherlink.com 1.10,2013-01-29 05:50:00,
2013-01-28 22:05:00,47.2,40.0,30.34,NW,304,0.0,4.0,75,0.00,,,0.00,0,weatherlink.com 1.10,2013-01-29 06:05:00,
2013-01-28 22:20:00,45.6,38.0,30.34,North,5,0.0,1.0,76,0.00,,,0.00,0,weatherlink.com 1.10,2013-01-29 06:20:00,
2013-01-28 22:35:00,44.9,38.0,30.34,North,5,0.0,2.0,76,0.00,,,0.00,0,weatherlink.com 1.10,2013-01-29 06:35:00,
2013-01-28 22:50:00,43.8,37.0,30.34,NE,44,0.0,2.0,78,0.00,,,0.00,0,weatherlink.com 1.10,2013-01-29 06:50:00,
2013-01-28 23:05:00,43.3,37.0,30.34,NE,46,0.0,3.0,78,0.00,,,0.00,0,weatherlink.com 1.10,2013-01-29 07:05:00,
2013-01-28 23:20:00,42.8,37.0,30.35,East,98,0.0,5.0,79,0.00,,,0.00,0,weatherlink.com 1.10,2013-01-29 07:20:00,
2013-01-28 23:35:00,42.9,37.0,30.35,NE,40,5.0,6.0,79,0.00,,,0.00,0,weatherlink.com 1.10,2013-01-29 07:35:00,
2013-01-28 23:50:00,43.0,37.0,30.35,NE,50,1.0,5.0,80,0.00,,,0.00,0,weatherlink.com 1.10,2013-01-29 07:50:00,